Location: Praha
(50.0830°N, 14.4670°E)
Time: 17:54:21
(UTC+02:00)

ISS - Pass Details

Date: 31 July 2022
Orbit: 412 x 420 km, 51.6° (Epoch: 17 August)

Event Time Altitude Azimuth Distance (km) Brightness Sun altitude
Rises 21:38:57 0° 281° (WNW) 2,350 1.2 -7.7°
Reaches altitude 10° 21:41:46 10° 256° (WSW) 1,485 -0.5 -8.0°
Maximum altitude 21:43:35 14° 222° (SW) 1,260 -1.3 -8.2°
Drops below altitude 10° 21:45:20 10° 190° (S) 1,462 -1.3 -8.5°
Enters shadow 21:46:39 - 174° (S) 1,816 -1.0 -8.6°
